When you browse on this site, cookies collect data to enhance your experience and personalize the content and advertising you see.
Visit our Privacy Policy to learn more. By continuing to use the site, you agree to this use of cookies and data.
  • In Czech Republic
  • List of Countries
  • For 7 days
  • Water Temperature
  • Weather Map
  • Weather Widgets
  • user-avatar
    Login

    Hourly Weather Kozhuhovo

    Today, 17 February, Monday

    Time Temperature Precipitation Wind Pressure Humidity
    00:00 -3°C° 0 mm 9 mps 749 mmHg 89%
    01:00 -3°C° 0 mm 9 mps 749 mmHg 89%
    02:00 -3°C° 0 mm 9 mps 749 mmHg 88%
    03:00 -3°C° 0 mm 9 mps 748 mmHg 86%
    04:00 -3°C° 0 mm 9 mps 747 mmHg 84%
    05:00 -4°C° 0 mm 9 mps 746 mmHg 83%
    06:00 -4°C° 0 mm 10 mps 746 mmHg 82%
    07:00 -4°C° 0 mm 10 mps 746 mmHg 81%
    08:00 -3°C° 0 mm 10 mps 746 mmHg 83%
    09:00 -3°C° 0 mm 10 mps 745 mmHg 81%
    10:00 -3°C° 0 mm 10 mps 745 mmHg 80%
    11:00 -3°C° 0 mm 11 mps 744 mmHg 79%
    12:00 -3°C° 0 mm 11 mps 744 mmHg 79%
    13:00 -2°C° 0 mm 11 mps 744 mmHg 80%
    14:00 -2°C° 0 mm 11 mps 744 mmHg 80%
    15:00 -2°C° 0 mm 10 mps 744 mmHg 80%
    16:00 -2°C° 0 mm 10 mps 744 mmHg 79%
    17:00 -3°C° 0 mm 9 mps 743 mmHg 78%
    18:00 -1°C° 0 mm 9 mps 744 mmHg 79%
    19:00 -1°C° 0 mm 9 mps 744 mmHg 80%
    20:00 -1°C° 0 mm 8 mps 745 mmHg 81%
    21:00 -1°C° 0 mm 8 mps 745 mmHg 83%
    22:00 -1°C° 0 mm 7 mps 745 mmHg 84%
    23:00 -1°C° 0 mm 7 mps 744 mmHg 86%

    Tomorrow, 18 February, Tuesday

    Time Temperature Precipitation Wind Pressure Humidity
    00:00 -2°C° 0.7 mm 6 mps 744 mmHg 90%
    01:00 -2°C° 0.7 mm 6 mps 745 mmHg 94%
    02:00 -1°C° 0.7 mm 5 mps 745 mmHg 98%
    03:00 -1°C° 1.1 mm 5 mps 744 mmHg 98%
    04:00 -1°C° 1.1 mm 5 mps 744 mmHg 98%
    05:00 -1°C° 1.1 mm 5 mps 744 mmHg 98%
    06:00 -1°C° 0.8 mm 5 mps 744 mmHg 99%
    07:00 -1°C° 0.8 mm 5 mps 744 mmHg 99%
    08:00 -1°C° 0.8 mm 4 mps 744 mmHg 99%
    09:00 -1°C° 0.2 mm 4 mps 744 mmHg 99%
    10:00 -1°C° 0.2 mm 4 mps 743 mmHg 99%
    11:00 -1°C° 0.2 mm 4 mps 743 mmHg 99%
    12:00 -1°C° 0.7 mm 5 mps 743 mmHg 99%
    13:00 -1°C° 0.7 mm 5 mps 742 mmHg 99%
    14:00 -1°C° 0.7 mm 5 mps 742 mmHg 98%
    15:00 -1°C° 0.9 mm 4 mps 742 mmHg 98%
    16:00 -1°C° 0.9 mm 4 mps 741 mmHg 98%
    17:00 -1°C° 0.9 mm 4 mps 741 mmHg 98%
    18:00 -1°C° 0.6 mm 4 mps 741 mmHg 98%
    19:00 0°C° 0.6 mm 3 mps 741 mmHg 98%
    20:00 0°C° 0.6 mm 3 mps 741 mmHg 99%
    21:00 0°C° 0.4 mm 3 mps 740 mmHg 99%
    22:00 -1°C° 0.4 mm 4 mps 740 mmHg 99%
    23:00 -1°C° 0.4 mm 4 mps 740 mmHg 99%

    Day after tomorrow, 19 February, Wednesday

    Time Temperature Precipitation Wind Pressure Humidity
    00:00 -1°C° 0.1 mm 4 mps 740 mmHg 98%
    01:00 -1°C° 0.1 mm 4 mps 740 mmHg 98%
    02:00 -1°C° 0.1 mm 4 mps 740 mmHg 97%
    03:00 -1°C° 0 mm 4 mps 740 mmHg 97%
    04:00 -1°C° 0 mm 4 mps 740 mmHg 97%
    05:00 -1°C° 0 mm 4 mps 740 mmHg 97%
    06:00 -1°C° 0 mm 4 mps 741 mmHg 97%
    07:00 -1°C° 0 mm 4 mps 741 mmHg 97%
    08:00 -1°C° 0 mm 5 mps 741 mmHg 97%
    09:00 -1°C° 0 mm 5 mps 742 mmHg 97%
    10:00 -1°C° 0 mm 5 mps 742 mmHg 98%
    11:00 -1°C° 0 mm 5 mps 742 mmHg 98%
    12:00 -1°C° 0 mm 5 mps 742 mmHg 98%
    13:00 -1°C° 0 mm 5 mps 742 mmHg 98%
    14:00 -1°C° 0 mm 5 mps 742 mmHg 98%
    15:00 -1°C° 0 mm 5 mps 743 mmHg 95%
    16:00 -1°C° 0 mm 4 mps 743 mmHg 92%
    17:00 -1°C° 0 mm 4 mps 743 mmHg 89%
    18:00 -2°C° 0 mm 4 mps 743 mmHg 90%
    19:00 -2°C° 0 mm 4 mps 744 mmHg 90%
    20:00 -2°C° 0 mm 4 mps 744 mmHg 90%
    21:00 -2°C° 0 mm 3 mps 744 mmHg 90%
    22:00 -2°C° 0 mm 3 mps 744 mmHg 91%
    23:00 -4°C° 0 mm 3 mps 744 mmHg 91%

    20 February, Thursday

    Time Temperature Precipitation Wind Pressure Humidity
    00:00 -4°C° 0 mm 3 mps 744 mmHg 91%
    01:00 -4°C° 0 mm 3 mps 745 mmHg 91%
    02:00 -4°C° 0 mm 3 mps 745 mmHg 92%
    03:00 -4°C° 0 mm 3 mps 745 mmHg 92%
    04:00 -4°C° 0 mm 3 mps 745 mmHg 92%
    05:00 -4°C° 0 mm 3 mps 745 mmHg 92%
    06:00 -4°C° 0 mm 3 mps 745 mmHg 91%
    07:00 -4°C° 0 mm 3 mps 746 mmHg 91%
    08:00 -4°C° 0 mm 3 mps 746 mmHg 90%
    09:00 -2°C° 0 mm 3 mps 746 mmHg 90%
    10:00 -1°C° 0 mm 3 mps 746 mmHg 90%
    11:00 0°C° 0 mm 3 mps 746 mmHg 90%
    12:00 0°C° 0 mm 3 mps 746 mmHg 91%
    13:00 0°C° 0 mm 3 mps 746 mmHg 92%
    14:00 0°C° 0 mm 3 mps 746 mmHg 92%
    15:00 -1°C° 0 mm 3 mps 746 mmHg 93%
    16:00 -1°C° 0 mm 3 mps 746 mmHg 93%
    17:00 -2°C° 0 mm 3 mps 746 mmHg 94%
    18:00 -2°C° 0 mm 3 mps 747 mmHg 94%
    19:00 -2°C° 0 mm 3 mps 747 mmHg 94%
    20:00 -2°C° 0 mm 3 mps 747 mmHg 95%
    21:00 -4°C° 0 mm 3 mps 747 mmHg 95%
    22:00 -4°C° 0 mm 3 mps 748 mmHg 95%
    23:00 -4°C° 0 mm 3 mps 748 mmHg 95%

    21 February, Friday

    Time Temperature Precipitation Wind Pressure Humidity
    00:00 -4°C° 0 mm 3 mps 748 mmHg 95%
    01:00 -4°C° 0 mm 3 mps 748 mmHg 96%
    02:00 -3°C° 0 mm 2 mps 748 mmHg 96%
    03:00 -3°C° 0 mm 2 mps 748 mmHg 96%
    04:00 -2°C° 0 mm 2 mps 748 mmHg 97%
    05:00 -2°C° 0 mm 2 mps 748 mmHg 97%
    06:00 -2°C° 0 mm 2 mps 748 mmHg 97%
    07:00 -2°C° 0 mm 2 mps 748 mmHg 97%
    08:00 -1°C° 0 mm 2 mps 749 mmHg 97%
    15:00 +1°C° 0 mm 2 mps 749 mmHg 98%
    16:00 -1°C° 0 mm 2 mps 749 mmHg 97%
    17:00 -1°C° 0 mm 2 mps 749 mmHg 97%
    18:00 -1°C° 0 mm 2 mps 749 mmHg 97%
    19:00 -1°C° 0 mm 2 mps 749 mmHg 96%
    20:00 -1°C° 0 mm 2 mps 749 mmHg 95%
    21:00 -2°C° 0 mm 2 mps 749 mmHg 95%
    22:00 -2°C° 0 mm 2 mps 749 mmHg 94%
    23:00 -2°C° 0 mm 2 mps 749 mmHg 93%

    22 February, Saturday

    Time Temperature Precipitation Wind Pressure Humidity
    00:00 -2°C° 0 mm 2 mps 749 mmHg 93%
    01:00 -3°C° 0 mm 2 mps 749 mmHg 93%
    02:00 -4°C° 0 mm 3 mps 749 mmHg 92%
    03:00 -4°C° 0 mm 3 mps 749 mmHg 93%
    04:00 -5°C° 0 mm 3 mps 749 mmHg 93%
    05:00 -5°C° 0 mm 3 mps 749 mmHg 93%
    06:00 -5°C° 0 mm 3 mps 749 mmHg 93%
    07:00 -5°C° 0 mm 3 mps 749 mmHg 93%
    08:00 -5°C° 0 mm 3 mps 749 mmHg 93%
    09:00 -4°C° 0 mm 3 mps 749 mmHg 91%
    10:00 -4°C° 0 mm 3 mps 749 mmHg 90%
    11:00 -3°C° 0 mm 4 mps 748 mmHg 89%
    12:00 -3°C° 0 mm 4 mps 748 mmHg 89%
    13:00 -3°C° 0 mm 4 mps 747 mmHg 89%
    14:00 -3°C° 0 mm 4 mps 747 mmHg 89%
    15:00 -3°C° 0 mm 4 mps 746 mmHg 89%
    16:00 -3°C° 0 mm 4 mps 746 mmHg 90%
    17:00 -3°C° 0 mm 4 mps 745 mmHg 91%
    18:00 -4°C° 0 mm 5 mps 745 mmHg 90%
    19:00 -4°C° 0 mm 5 mps 744 mmHg 89%
    20:00 -4°C° 0 mm 6 mps 744 mmHg 88%
    21:00 -4°C° 0 mm 6 mps 742 mmHg 88%
    22:00 -4°C° 0 mm 6 mps 741 mmHg 88%
    23:00 -4°C° 0 mm 7 mps 740 mmHg 87%
    Show more